This is the latest recevied weather packets stored in our database for station/object N1IJV-10. If no packets are shown the sender has not sent any weather packets the latest 10 day(s).
| Time | Temp. | Humidity | Pressure | Rain* | Wind** | Luminosity | Snow |
|---|---|---|---|---|---|---|---|
| 1778074446 | 9.44° C | 59% | 1013.3 hPa | 0 mm | - | 150 W/m² | - |
| 1778074143 | 8.89° C | 62% | 1013.1 hPa | 0 mm | - | 153 W/m² | - |
| 1778073840 | 8.89° C | 65% | 1013.1 hPa | 0 mm | - | 127 W/m² | - |
| 1778073538 | 8.89° C | 65% | 1013 hPa | 0 mm | - | 116 W/m² | - |
| 1778073233 | 8.33° C | 65% | 1013.1 hPa | 0 mm | - | 115 W/m² | - |
| 1778072931 | 8.33° C | 70% | 1012.9 hPa | 0 mm | - | 112 W/m² | - |
| 1778072627 | 7.78° C | 75% | 1013 hPa | 0 mm | - | 115 W/m² | - |
| 1778072325 | 7.78° C | 75% | 1012.9 hPa | 0 mm | - | 105 W/m² | - |
| 1778072023 | 7.78° C | 77% | 1012.8 hPa | 0 mm | - | 97 W/m² | - |
| 1778071721 | 7.22° C | 75% | 1012.8 hPa | 0 mm | - | 91 W/m² | - |
| 1778071418 | 7.22° C | 77% | 1012.8 hPa | 0 mm | - | 93 W/m² | - |
| 1778071116 | 7.22° C | 78% | 1012.6 hPa | 0 mm | - | 83 W/m² | - |
| 1778070814 | 6.67° C | 77% | 1012.5 hPa | 0 mm | - | 81 W/m² | - |
| 1778070511 | 6.67° C | 75% | 1012.4 hPa | 0 mm | - | 77 W/m² | - |
| 1778070208 | 6.11° C | 76% | 1012.6 hPa | 0 mm | - | 62 W/m² | - |
| 1778069906 | 6.11° C | 77% | 1012.5 hPa | 0 mm | - | 56 W/m² | - |
| 1778069603 | 5.56° C | 79% | 1012.3 hPa | 0 mm | - | 57 W/m² | - |
| 1778069300 | 5.56° C | 81% | 1012.3 hPa | 0 mm | - | 55 W/m² | - |
| 1778068998 | 5.56° C | 82% | 1012.3 hPa | 0 mm | - | 51 W/m² | - |
| 1778068695 | 5° C | 84% | 1012.2 hPa | 0 mm | - | 43 W/m² | - |
| 1778068393 | 5° C | 84% | 1011.9 hPa | 0 mm | - | 46 W/m² | - |
| 1778068091 | 4.44° C | 85% | 1012.2 hPa | 0 mm | - | 44 W/m² | - |
| 1778067788 | 3.89° C | 87% | 1011.9 hPa | 0 mm | - | 39 W/m² | - |
| 1778067487 | 3.89° C | 88% | 1012.1 hPa | 0 mm | - | 35 W/m² | - |
| 1778067184 | 3.33° C | 89% | 1011.8 hPa | 0 mm | - | 30 W/m² | - |
* Rain latest hour (hover to see other rain measurements)
** Current wind speed in m/s (hover to see current wind gust speed)